[[{"header":{"parameterUnit":"m.s-1","parameterCategory":1,"la1":30.2991,"la2":30.254,"lo1":-89.0895,"lo2":-89.0444,"dy":0.0017,"dx":0.0017,"nx":28,"ny":28,"refTime":"2024-05-26T21:00:00:Z","depth":0,"parameterNumber":2,"parameterNumberName":"U-component_of_WINDS"},"data":[0,0,0,0,0,0,0,0,0,0,0,0,0,0,0,0,0,0,0,0,0,0,0,0,0,0,0,0,0,0,0,0,0,0,0,0,0,0,0,0,0,0,0,0,0,0,0,0,0,0,0,0,0,0,0,0,0,0,2.1642,2.1643,0,2.1726,2.1727,2.1728,2.173,2.1729,2.1728,2.1727,2.1815,2.1818,2.1822,0,0,0,0,0,0,0,0,0,0,0,0,0,2.1481,2.1484,2.1642,2.1643,2.1644,2.1726,2.1727,2.1729,2.1731,2.1729,2.1728,2.1727,2.1814,2.1818,2.1822,0,0,0,0,0,0,0,0,0,0,0,0,0,2.1557,2.1485,2.1641,2.1655,2.1657,2.1726,2.1727,2.1729,2.1731,2.1729,2.1728,2.1726,2.1813,2.1818,2.1823,2.1885,0,0,2.1838,2.184,0,0,0,0,0,0,0,0,2.1553,2.1563,2.1652,2.1654,2.1656,2.1716,2.1703,2.1781,2.1731,2.1703,2.1727,2.1726,2.1784,2.1791,2.181,2.1889,2.1892,2.1838,2.1841,2.1843,2.1845,0,0,0,0,0,0,0,2.1547,2.1559,2.1675,2.1653,2.1656,2.1656,2.1665,2.1718,2.1751,2.1705,2.1705,2.1715,2.1785,2.1805,2.1812,2.1894,2.1838,2.1842,2.1845,2.1847,2.2026,2.2028,0,0,0,0,0,0,2.1539,2.1555,2.1672,2.1678,2.1599,2.166,2.1671,2.1699,2.175,2.1757,2.1717,2.1715,2.1798,2.1807,2.1815,2.1891,2.1843,2.1848,2.1851,2.2024,2.2026,2.2028,0,0,0,0,0,0,2.1536,2.155,2.1669,2.1616,2.1632,2.1665,2.1696,2.1701,2.1722,2.1759,2.1765,2.1732,2.1797,2.1808,2.1867,2.1894,2.185,2.1855,2.2022,2.2025,2.2027,2.2042,0,0,0,0,0,0,2.1531,2.1549,2.1573,2.1617,2.1634,2.1719,2.1698,2.1704,2.173,2.1729,2.1775,2.1781,2.1797,2.186,2.1872,2.19,2.1859,2.202,2.2023,2.2027,2.204,2.2045,2.205,0,0,0,0,0,2.1526,2.1574,2.1574,2.1588,2.1665,2.1721,2.1731,2.1747,2.1733,2.1757,2.1781,2.178,2.1889,2.1866,2.188,2.1909,2.2018,2.2023,2.2026,2.2037,2.2044,2.205,0,0,0,0,0,0,2.1533,2.158,2.1581,2.1645,2.1679,2.1721,2.1753,2.1754,2.1793,2.1791,2.181,2.182,2.1878,2.19,2.1873,2.1972,2.1952,2.1959,2.1955,2.1962,2.1967,2.1961,2.1863,0,0,0,0,0,2.1542,2.1583,2.1622,2.1675,2.1692,2.1719,2.1744,2.1754,2.179,2.1804,2.1832,2.1868,2.191,2.1937,2.1978,2.2043,2.2052,2.207,2.2075,2.2079,2.2085,2.212,2.2128,2.2041,2.2041,2.2041,0,0,2.1561,2.1592,2.1617,2.1677,2.1705,2.1747,2.1731,2.1777,2.1808,2.1811,2.1868,2.189,2.193,2.1992,2.202,2.2012,2.2111,2.2084,2.2087,2.2091,2.2125,2.2133,2.214,2.2044,2.2044,2.2043,0,0,2.1617,2.1645,2.1691,2.1719,2.1761,2.1778,2.1789,2.1831,2.1846,2.1903,2.1906,2.1943,2.2016,2.2044,2.2068,2.2133,2.2134,2.2146,2.2173,2.2207,2.2214,2.222,2.2242,2.225,2.2152,2.2152,2.2152,0,2.1636,2.1699,2.1715,2.1761,2.1787,2.1791,2.1838,2.1864,2.1917,2.1934,2.1924,2.2014,2.2041,2.2109,2.2125,2.2144,2.2157,2.2141,2.2211,2.2218,2.2223,2.2245,2.2254,2.2153,2.2153,2.2153,2.2152,0,2.172,2.1764,2.1796,2.1847,2.1876,2.1922,2.1945,2.1973,2.198,2.1998,2.2056,2.2089,2.2136,2.2153,2.216,2.2221,2.2214,2.2207,2.2188,2.2233,2.2254,2.2262,2.2155,2.2154,2.2154,2.2154,0,0,2.1784,2.1841,2.1853,2.1876,2.1921,2.1955,2.2001,2.2047,2.207,2.2106,2.2144,2.2205,2.2198,2.2225,2.2235,2.2265,2.2314,2.2254,2.2255,2.2264,2.2382,2.2387,2.2397,2.2314,2.2316,2.2317,2.2379,0,2.1845,2.1926,2.1941,2.2012,2.2052,2.2056,2.2096,2.2128,2.2146,2.2183,2.2203,2.2245,2.2233,2.225,2.2279,2.2302,2.2338,2.2297,2.235,2.2352,2.234,2.2408,2.2414,2.2471,2.2387,2.2389,2.239,0,2.1927,2.1964,2.2039,2.2078,2.2096,2.2131,2.2173,2.2209,2.2245,2.2256,2.2285,2.2292,2.2339,2.2317,2.2382,2.2354,2.2376,2.239,2.2393,2.2398,2.2373,2.2415,2.2489,2.2498,2.2403,2.2402,2.2401,0,2.1966,2.2035,2.2088,2.2107,2.2154,2.2179,2.22,2.2234,2.226,2.2297,2.2314,2.2356,2.2379,2.2411,2.2429,2.2411,2.2492,2.2472,2.2502,2.2502,2.252,2.2518,2.2598,2.2534,2.2534,2.2534,2.2533,0,2.2032,2.2078,2.2106,2.2139,2.2189,2.2206,2.2256,2.2276,2.2306,2.2343,2.2348,2.2382,2.2404,2.2441,2.2455,2.2506,2.2516,2.2526,2.2529,2.2526,2.2524,2.2541,2.2537,2.2536,2.2535,2.2535,2.2535,0,2.2084,2.2105,2.2163,2.2203,2.2213,2.2249,2.2283,2.2314,2.2332,2.2378,2.239,2.2418,2.2461,2.2482,2.2536,2.2545,2.2603,2.2604,2.2591,2.2592,2.2622,2.2618,2.2715,2.2728,2.2655,2.2656,2.2656,0,2.2125,2.216,2.2203,2.2228,2.2249,2.2289,2.2315,2.2332,2.2359,2.2402,2.2429,2.2472,2.2508,2.2578,2.2603,2.2644,2.2646,2.2676,2.2652,2.2647,2.2646,2.2643,2.2647,2.2681,2.2682,2.2682,2.2683,0,2.2196,2.2204,2.2242,2.2283,2.2314,2.2347,2.238,2.24,2.2422,2.2452,2.2497,2.2524,2.2579,2.2622,2.2665,2.2686,2.2688,2.269,2.2699,2.2696,2.2687,2.2692,2.2603,2.2688,2.2687,2.2687,2.2687,2.2687,2.2244,2.2274,2.2309,2.2351,2.2377,2.2407,2.2438,2.2459,2.2497,2.2542,2.255,2.2597,2.2631,2.2689,2.2711,2.2748,2.2741,2.2754,2.2758,2.2761,2.2762,2.2681,2.2756,2.2756,2.2756,2.2755,2.2755,0,2.2314,2.2336,2.2374,2.2419,2.2452,2.245,2.2486,2.2513,2.2554,2.2586,2.2621,2.2671,2.2713,2.274,2.2782,2.2807,2.2808,2.2817,2.2815,2.282,2.2766,2.2754,2.2815,2.2815,2.2815,2.2815,2.2815,2.2815,2.2355,2.2406,2.2418,2.2483,2.2505,2.2551,2.2571,2.2599,2.2624,2.268,2.2714,2.2732,2.2762,2.2805,2.2843,2.285,2.2865,2.2874,2.2881,2.283,2.2824,2.2818,2.2807,2.2877,2.2877,2.2932,2.2932,2.2932]},{"header":{"parameterUnit":"m.s-1","parameterCategory":1,"la1":30.2991,"la2":30.254,"lo1":-89.0895,"lo2":-89.0444,"dy":0.0017,"dx":0.0017,"nx":28,"ny":28,"refTime":"2024-05-26T21:00:00:Z","depth":0,"parameterNumber":3,"parameterNumberName":"V-component_of_WINDS"},"data":[0,0,0,0,0,0,0,0,0,0,0,0,0,0,0,0,0,0,0,0,0,0,0,0,0,0,0,0,0,0,0,0,0,0,0,0,0,0,0,0,0,0,0,0,0,0,0,0,0,0,0,0,0,0,0,0,0,0,5.8103,5.8103,0,5.8098,5.8098,5.8098,5.8066,5.8065,5.8064,5.8064,5.8057,5.8057,5.8058,0,0,0,0,0,0,0,0,0,0,0,0,0,5.8086,5.8086,5.8103,5.8103,5.8103,5.8098,5.8098,5.8098,5.8066,5.8065,5.8064,5.8063,5.8057,5.8057,5.8058,0,0,0,0,0,0,0,0,0,0,0,0,0,5.8088,5.8087,5.8103,5.8087,5.8085,5.8098,5.8098,5.8098,5.8066,5.8065,5.8064,5.8063,5.8057,5.8057,5.8058,5.8086,0,0,5.8061,5.8061,0,0,0,0,0,0,0,0,5.8088,5.8089,5.8089,5.8088,5.8086,5.8081,5.8089,5.8094,5.8066,5.8073,5.8064,5.8062,5.8066,5.8066,5.8067,5.8086,5.8086,5.8061,5.8061,5.8062,5.8062,0,0,0,0,0,0,0,5.8088,5.8089,5.8101,5.8089,5.8087,5.8079,5.8079,5.809,5.8076,5.8073,5.807,5.807,5.8065,5.8067,5.8067,5.8085,5.8061,5.8061,5.8062,5.8062,5.8128,5.8129,0,0,0,0,0,0,5.809,5.8089,5.8101,5.8101,5.8084,5.8081,5.808,5.8084,5.8076,5.8074,5.8071,5.8069,5.8066,5.8066,5.8067,5.8099,5.8062,5.8062,5.8063,5.8126,5.8128,5.8129,0,0,0,0,0,0,5.809,5.8092,5.8101,5.8094,5.8095,5.8082,5.8087,5.8085,5.8086,5.8075,5.8072,5.8076,5.8065,5.8065,5.8082,5.8099,5.8063,5.8063,5.8125,5.8127,5.8129,5.8165,0,0,0,0,0,0,5.809,5.8092,5.8102,5.8095,5.8096,5.8117,5.8088,5.8085,5.8088,5.8085,5.8078,5.8076,5.8064,5.8081,5.8083,5.8099,5.8064,5.8123,5.8126,5.8128,5.8162,5.8168,5.8173,0,0,0,0,0,5.8089,5.8112,5.8103,5.8105,5.8108,5.8118,5.8118,5.8104,5.8089,5.81,5.8093,5.8076,5.8097,5.8083,5.8085,5.8102,5.8122,5.8125,5.8128,5.816,5.8167,5.8173,0,0,0,0,0,0,5.8121,5.8111,5.81,5.8122,5.8121,5.8113,5.8125,5.8112,5.8115,5.8112,5.8094,5.8093,5.8112,5.8109,5.8093,5.8129,5.8107,5.811,5.8131,5.8137,5.8142,5.8143,5.8065,0,0,0,0,0,5.8131,5.8139,5.813,5.815,5.815,5.8138,5.8141,5.8131,5.8129,5.8129,5.8123,5.8122,5.8128,5.8132,5.8137,5.8162,5.816,5.8175,5.818,5.8184,5.8187,5.8201,5.8207,5.8139,5.8139,5.8139,0,0,5.815,5.8146,5.8152,5.8156,5.8154,5.8164,5.8138,5.8149,5.8156,5.813,5.8146,5.8141,5.8139,5.816,5.8169,5.8157,5.8206,5.8188,5.8191,5.8192,5.8204,5.8211,5.8217,5.8141,5.814,5.814,0,0,5.8191,5.8188,5.8205,5.8204,5.8202,5.8194,5.8198,5.8192,5.8189,5.8204,5.8185,5.8194,5.8204,5.8204,5.8205,5.8248,5.8233,5.825,5.8277,5.8291,5.8296,5.8301,5.8316,5.8322,5.8253,5.8253,5.8253,0,5.8215,5.8229,5.8215,5.8228,5.823,5.8209,5.8226,5.8225,5.8225,5.8227,5.8215,5.8229,5.8226,5.8247,5.8257,5.8259,5.8263,5.825,5.8296,5.8301,5.8305,5.832,5.8326,5.8255,5.8255,5.8255,5.8254,0,5.826,5.827,5.8283,5.8285,5.8289,5.8304,5.8292,5.8298,5.8287,5.8281,5.8297,5.8293,5.8297,5.8302,5.8291,5.8321,5.8314,5.83,5.8277,5.8314,5.8328,5.8333,5.8258,5.8257,5.8257,5.8256,0,0,5.8318,5.8313,5.8319,5.8319,5.8317,5.8324,5.8338,5.8343,5.8349,5.835,5.8361,5.8372,5.8359,5.836,5.835,5.8361,5.8396,5.8345,5.8345,5.8355,5.843,5.8441,5.8448,5.8387,5.8388,5.8388,5.843,0,5.8358,5.8382,5.8371,5.8396,5.8406,5.8387,5.8399,5.8399,5.8393,5.8401,5.8395,5.8403,5.8384,5.8385,5.8396,5.839,5.8411,5.8386,5.8397,5.8398,5.8399,5.8455,5.8467,5.8507,5.8435,5.8436,5.8437,0,5.8406,5.8411,5.8438,5.8435,5.8438,5.845,5.8454,5.8461,5.8461,5.8456,5.8459,5.8446,5.846,5.8438,5.8457,5.8441,5.8445,5.8442,5.8444,5.8444,5.842,5.8457,5.8519,5.8525,5.8445,5.8444,5.8444,0,5.8447,5.846,5.8478,5.8479,5.8476,5.8485,5.8483,5.8482,5.8486,5.849,5.8493,5.8498,5.8501,5.8505,5.8494,5.8479,5.8515,5.8492,5.8511,5.8512,5.8519,5.8519,5.8583,5.8522,5.8522,5.8522,5.8522,0,5.8492,5.851,5.8497,5.8508,5.8527,5.8514,5.8533,5.853,5.8529,5.8539,5.8522,5.8532,5.8517,5.8526,5.8517,5.8535,5.8536,5.8533,5.853,5.8534,5.8535,5.8536,5.8533,5.8523,5.8523,5.8523,5.8523,0,5.8541,5.8533,5.8551,5.8547,5.8547,5.8561,5.8557,5.8568,5.8562,5.8575,5.8577,5.8568,5.8577,5.8567,5.8575,5.857,5.8594,5.8587,5.8594,5.8592,5.8613,5.8611,5.8679,5.8688,5.8622,5.8622,5.8623,0,5.857,5.8583,5.8581,5.8587,5.8588,5.8597,5.8602,5.859,5.8596,5.8597,5.8607,5.8616,5.8621,5.8637,5.8631,5.8637,5.8631,5.8654,5.8631,5.8636,5.8632,5.8631,5.8633,5.8659,5.866,5.866,5.8661,0,5.8623,5.8619,5.8626,5.8633,5.864,5.8644,5.8647,5.8653,5.8641,5.8648,5.8658,5.8663,5.8672,5.868,5.8685,5.8684,5.8671,5.8668,5.8673,5.8677,5.8681,5.868,5.8607,5.8667,5.8666,5.8666,5.8665,5.8665,5.8663,5.8674,5.8675,5.8685,5.8686,5.869,5.87,5.8696,5.8704,5.8711,5.8704,5.8716,5.8716,5.8722,5.8722,5.8732,5.8721,5.8728,5.873,5.8732,5.8736,5.868,5.8732,5.8732,5.8732,5.8732,5.8732,0,5.8715,5.8715,5.8724,5.873,5.8738,5.8726,5.8729,5.8736,5.8748,5.875,5.8756,5.8768,5.8777,5.8772,5.8779,5.8788,5.8782,5.879,5.8789,5.8789,5.8744,5.8739,5.8795,5.8795,5.8795,5.8795,5.8795,5.8795,5.8743,5.8762,5.8758,5.8778,5.8778,5.8791,5.8794,5.8797,5.8799,5.8813,5.8821,5.8818,5.8817,5.8825,5.8832,5.883,5.8834,5.8844,5.8841,5.8798,5.8792,5.8786,5.8782,5.8845,5.8845,5.8885,5.8886,5.8886]}]]